Maksim Ismayilov

チーフスカウト - AZAL
2 3月 2028
木曜日
処理

性格

適応力 (6) 野心 (18) 物議 (11) 忠誠心 (16) プレッシャー耐性 (13) プロ意識 (9) スポーツマンシップ (11) 気質 (14)

プロフィール

指導スタイル 民主型
ライセンス 大陸C級
決断力 3
人材管理 2
モチベーション 2
規律 7
仕事満足度
100%
疲労度
0%
役職 チーフスカウト
給与 27.5K 週給
契約 14.03.2029

パフォーマンス

態度 良い
トレーニング効果
26%
選手育成
35%
怪我予防
15%
戦術実行
20%

最近の出来事

補強会議に出席 35日前
獲得候補を推薦 35日前
研修に参加中 42日前
補強会議に出席 42日前
獲得候補を推薦 42日前
研修に参加中 42日前
研修に参加中 42日前
研修に参加中 42日前

監視中

86
選手 クラブ 状態 能力 自信 視察済み 最終確認 最新投票
Süleyman Damadayev Gabala アクティブ 86 / 89 55% 1 07.01.2028 -
David Veliz Güemes アクティブ 110 / 121 40% 1 05.01.2028 -
Franco Malagueño Colegiales アクティブ 94 / 100 40% 1 05.01.2028 -
Matías Viguet Maipú アクティブ 103 / 121 40% 1 04.01.2028 -
Ilja Ivarlak Spartaks アクティブ 68 / 75 66% 1 01.01.2028 承認
Ilya Tishurov Osipovichi アクティブ 73 / 95 40% 1 31.08.2027 -
Alejandro Melo Temperley アクティブ 118 / 114 40% 1 31.08.2027 -
Lisandro Cabrera Maipú アクティブ 101 / 133 40% 2 30.08.2027 -
José Rondón Zulia アクティブ 82 / 104 40% 2 30.08.2027 -
Luciano Peraggini Maipú アクティブ 92 / 121 40% 1 29.08.2027 -
Aleksandar Lyubenov Dobrudzha アクティブ 85 / 81 40% 1 29.08.2027 -
Abdoulaye Mahamat US Moursal アクティブ 63 / 83 40% 1 28.08.2027 -
Abubakar Bonni Enyimba アクティブ 73 / 107 40% 1 28.08.2027 -
Joshua Oluwayemi Newport County アクティブ 108 / 117 40% 1 28.08.2027 -
Efraín Ustariz Beroe アクティブ 116 / 102 40% 1 28.08.2027 -
Renato Solís Estudiantes アクティブ 120 / 133 40% 2 27.08.2027 -
Gustavo Calderari Colegiales アクティブ 101 / 114 40% 1 27.08.2027 -
Marcelo Miño Ferro Carril Oeste アクティブ 108 / 129 40% 1 25.08.2027 -
Alexis Domínguez Chacarita Juniors アクティブ 125 / 125 40% 1 25.08.2027 -
Facundo Castelli Estudiantes アクティブ 102 / 99 40% 1 24.08.2027 -
Sergey Volkov Rodina アクティブ 95 / 125 40% 2 23.08.2027 -
Laureano Martínez Talleres アクティブ 112 / 94 40% 1 21.08.2027 -
Galin Grigorov Septemvri アクティブ 113 / 124 40% 1 21.08.2027 -
Cameron Dawson Bradford City アクティブ 111 / 91 40% 1 20.08.2027 -
Joaquín Bigo Gimnasia La Plata アクティブ 116 / 120 40% 1 19.08.2027 -
Carlos Guerreño Minsk アクティブ 96 / 97 40% 1 19.08.2027 -
Esteban da Silva Racing アクティブ 131 / 125 40% 1 18.08.2027 -
Franco Rivasseau Patronato アクティブ 118 / 89 40% 1 17.08.2027 -
Facundo Altamirano San Lorenzo アクティブ 117 / 112 40% 1 14.08.2027 -
Marius Adamonis Neftchi アクティブ 124 / 123 40% 5 12.08.2027 -
Emilio Di Fulvio Colegiales アクティブ 124 / 101 40% 1 12.08.2027 -
Enzo González Defensores アクティブ 114 / 90 40% 1 12.08.2027 -
Lautaro Gordillo Colegiales アクティブ 109 / 101 40% 2 11.08.2027 -
Lucas Pedraza Defensores Unidos アクティブ 104 / 117 40% 1 10.08.2027 -
Leonardo Bellini Pianese アクティブ 102 / 116 40% 1 10.08.2027 -
Lévi Ntumba Slavia Sofia アクティブ 119 / 123 40% 1 08.08.2027 -
Juan Pablo Noce Burgos アクティブ 103 / 128 40% 2 07.08.2027 -
Italo Espinoza San Martín アクティブ 105 / 121 40% 1 06.08.2027 -
José Miers 12 de Octubre アクティブ 85 / 102 40% 1 05.08.2027 -
Maxim Belov Dinamo Brest アクティブ 90 / 118 40% 1 03.08.2027 -
Álvaro Montero Boca Juniors アクティブ 139 / 112 40% 1 03.08.2027 -
Salim Hashimov Zira アクティブ 69 / 85 55% 1 02.08.2027 -
Charlie Brown Accrington Stanley アクティブ 75 / 90 40% 1 02.08.2027 -
Agustín Lastra Newell's Old Boys アクティブ 118 / 96 40% 1 01.08.2027 -
Pedro López Ceuta アクティブ 100 / 92 40% 1 01.08.2027 -
Tomás Bolzicco Chaco For Ever アクティブ 106 / 107 40% 1 31.07.2027 -
Lucas Bonelli Felgueiras アクティブ 123 / 94 40% 1 29.07.2027 -
Ignacio Chicco Aldosivi アクティブ 141 / 130 40% 1 26.07.2027 -
Johan Portilla Torpedo Moscow アクティブ 91 / 103 40% 1 24.07.2027 -
Afran Sadygov Inter アクティブ 96 / 98 40% 3 23.07.2027 -
Saliou Guindo MC Oran アクティブ 82 / 101 40% 1 23.07.2027 -
Neneca Santa Clara アクティブ 88 / 127 40% 1 20.07.2027 -
Beryly Lubala Vicenza アクティブ 90 / 123 40% 1 20.07.2027 -
Destiny Efosa Egharevba Picerno アクティブ 88 / 114 40% 1 17.07.2027 -
Kabiru Abdullahi Northampton Town アクティブ 78 / 110 40% 1 16.07.2027 -
Chinedu Onyinjekwu Bayelsa United アクティブ 81 / 86 40% 1 16.07.2027 -
Pedro González Cerro Largo アクティブ 124 / 106 40% 1 15.07.2027 -
Sheldon Dinesh Stockport County アクティブ 112 / 125 40% 1 14.07.2027 -
Kənan Feyziyev Sumgayit アクティブ 81 / 65 51% 1 12.07.2027 -
Bogdan Ovsyannikov Orenburg アクティブ 107 / 128 40% 1 11.07.2027 -
Danil Karpov Chernomorets アクティブ 86 / 107 40% 1 08.07.2027 -
Ilja Gruznov Khimik アクティブ 74 / 103 40% 1 06.07.2027 -
Petr Kudakovskiy Shinnik アクティブ 96 / 92 40% 1 04.07.2027 -
Nikita Chagrov Rotor アクティブ 118 / 84 40% 3 03.07.2027 -
Aydın Bayramov Zira アクティブ 88 / 114 40% 1 03.07.2027 -
Nahuel Yzaurralde Quilmes アクティブ 92 / 118 40% 3 29.06.2027 -
Alexandr Degtev Sochi アクティブ 89 / 113 40% 1 25.06.2027 -
Daniil Frolkin Fakel アクティブ 127 / 110 40% 1 24.06.2027 -
Kenan Pirić Neftchi アクティブ 116 / 97 40% 1 24.06.2027 -
Nicholas Ammeter Arouca アクティブ 97 / 121 40% 1 22.06.2027 -
Alexey Kuznetsov Leningradets アクティブ 110 / 112 40% 2 21.06.2027 -
Petr Kosarevskiy Sibir アクティブ 111 / 108 40% 1 20.06.2027 -
Javier Vallejos Central Córdoba SdE アクティブ 87 / 121 40% 1 19.06.2027 -
Daniel Bachmann Watford アクティブ 103 / 120 40% 2 18.06.2027 -
Vitaly Gudiev Akron アクティブ 117 / 112 40% 1 14.06.2027 -
Fabricio Hass Gijón アクティブ 93 / 106 40% 1 09.06.2027 -
Igor Gorbunov Arsenal Tula アクティブ 106 / 77 40% 1 31.01.2027 -
Đorđe Pantelić Spartak Kostroma アクティブ 118 / 86 40% 2 30.01.2027 -
David Karaev KAMAZ アクティブ 94 / 102 40% 1 30.01.2027 -
Géza Dávid Turi Grimsby Town アクティブ 90 / 80 40% 1 28.01.2027 -
Miguel Sousa Leixões アクティブ 111 / 130 40% 1 24.01.2027 -
Ilja Zhigulev Chernomorets アクティブ 102 / 100 40% 1 19.01.2027 -
Brahim Konaté Zira アクティブ 101 / 107 40% 1 11.01.2027 -
Islam Imamov SKA Khabarovsk アクティブ 100 / 75 40% 1 01.01.2027 -
Luca Fernández Barracas Central アクティブ 61 / 104 40% 1 24.08.2026 -
Zacarías López Iquique アクティブ 83 / 83 40% 1 01.08.2026 -